| time (UTC) | temp C | wind direction | speed KPH | gust KPH | rain 1hr cm | rain 24hr cm | rain mn cm | humidity % | barometer mb |
| 20260903043050 | 27 | 0.0 | 0.0 | 0.00 | 0.00 | 0.00 | 78 | 1014.5 | |
| 20260903042610 | 27 | 0.0 | 0.0 | 0.00 | 0.00 | 0.00 | 77 | 1014.5 | |
| 20260903042108 | 27 | 244 | 6.4 | 9.7 | 0.00 | 0.00 | 0.00 | 77 | 1014.4 |
| 20260903041545 | 27 | 0.0 | 0.0 | 0.00 | 0.00 | 0.00 | 77 | 1014.4 | |
| 20260903041045 | 27 | 286 | 9.7 | 17.7 | 0.00 | 0.00 | 0.00 | 78 | 1014.4 |
| 20260903040342 | 27 | 0.0 | 0.0 | 0.00 | 0.00 | 0.00 | 78 | 1014.3 | |
| 20260903035920 | 27 | 0.0 | 0.0 | 0.00 | 0.00 | 0.00 | 78 | 1014.2 | |
| 20260903035339 | 27 | 241 | 11.3 | 12.9 | 0.00 | 0.00 | 0.00 | 77 | 1014.2 |
| 20260903034837 | 27 | 231 | 9.7 | 14.5 | 0.00 | 0.00 | 0.00 | 78 | 1014.0 |
| 20260903034355 | 27 | 229 | 8.0 | 11.3 | 0.00 | 0.00 | 0.00 | 78 | 1013.9 |
| 20260903033834 | 27 | 0.0 | 0.0 | 0.00 | 0.00 | 0.00 | 78 | 1013.8 | |
| 20260903033332 | 27 | 228 | 8.0 | 11.3 | 0.00 | 0.00 | 0.00 | 78 | 1013.9 |
| 20260903032630 | 27 | 222 | 6.4 | 9.7 | 0.00 | 0.00 | 0.00 | 79 | 1013.8 |
| 20260903032129 | 27 | 253 | 9.7 | 12.9 | 0.00 | 0.00 | 0.00 | 79 | 1013.8 |
| 20260903031626 | 27 | 247 | 8.0 | 11.3 | 0.00 | 0.00 | 0.00 | 79 | 1013.8 |
| 20260903031146 | 27 | 0.0 | 0.0 | 0.00 | 0.00 | 0.00 | 80 | 1013.8 | |
| 20260903030624 | 27 | 0.0 | 0.0 | 0.00 | 0.00 | 0.00 | 79 | 1013.7 | |
| 20260903030022 | 27 | 247 | 9.7 | 11.3 | 0.00 | 0.00 | 0.00 | 79 | 1013.8 |
| 20260903025540 | 27 | 0.0 | 0.0 | 0.00 | 0.00 | 0.00 | 80 | 1013.8 | |
| 20260903024918 | 26 | 247 | 6.4 | 9.7 | 0.00 | 0.00 | 0.00 | 80 | 1013.8 |
| 20260903024516 | 26 | 247 | 6.4 | 8.0 | 0.00 | 0.00 | 0.00 | 81 | 1013.8 |
| 20260903023915 | 26 | 0.0 | 0.0 | 0.00 | 0.00 | 0.00 | 84 | 1013.7 | |
| 20260903023413 | 26 | 0.0 | 0.0 | 0.00 | 0.00 | 0.00 | 86 | 1013.7 | |
| 20260903022912 | 25 | 0.0 | 0.0 | 0.00 | 0.00 | 0.00 | 89 | 1013.6 | |
| 20260903022409 | 25 | 0.0 | 0.0 | 0.00 | 0.00 | 0.00 | 89 | 1013.8 | |
| 20260903021908 | 25 | 0.0 | 0.0 | 0.00 | 0.00 | 0.00 | 89 | 1014.0 | |
| 20260903021206 | 25 | 0.0 | 0.0 | 0.00 | 0.00 | 0.00 | 87 | 1014.2 | |
| 20260903020804 | 25 | 0.0 | 0.0 | 0.00 | 0.00 | 0.00 | 87 | 1014.4 | |
| 20260903020303 | 26 | 0.0 | 0.0 | 0.00 | 0.00 | 0.00 | 87 | 1014.3 | |
| 20260903015903 | 26 | 0.0 | 0.0 | 0.00 | 0.00 | 0.00 | 87 | 1014.3 | |
| 20260903015259 | 26 | 0.0 | 0.0 | 0.00 | 0.00 | 0.00 | 87 | 1014.3 | |
| 20260903014758 | 26 | 0.0 | 0.0 | 0.00 | 0.00 | 0.00 | 87 | 1014.2 | |
| 20260903014257 | 26 | 0.0 | 0.0 | 0.00 | 0.00 | 0.00 | 87 | 1014.3 | |
| 20260903013816 | 26 | 0.0 | 0.0 | 0.00 | 0.00 | 0.00 | 86 | 1014.3 | |
| 20260903013254 | 26 | 0.0 | 0.0 | 0.00 | 0.00 | 0.00 | 86 | 1014.2 | |
| 20260903012751 | 26 | 0.0 | 0.0 | 0.00 | 0.00 | 0.00 | 85 | 1014.2 | |
| 20260903012310 | 26 | 0.0 | 0.0 | 0.00 | 0.00 | 0.00 | 85 | 1014.2 | |
| 20260903011827 | 26 | 0.0 | 0.0 | 0.00 | 0.00 | 0.00 | 85 | 1014.2 | |
| 20260903011146 | 27 | 0.0 | 0.0 | 0.00 | 0.00 | 0.00 | 83 | 1014.1 | |
| 20260903010644 | 27 | 0.0 | 0.0 | 0.00 | 0.00 | 0.00 | 82 | 1014.1 | |
| 20260903010323 | 27 | 0.0 | 0.0 | 0.00 | 0.00 | 0.00 | 83 | 1014.0 | |
| 20260903005641 | 27 | 0.0 | 0.0 | 0.00 | 0.00 | 0.00 | 81 | 1014.0 | |
| 20260903005139 | 27 | 0.0 | 0.0 | 0.00 | 0.00 | 0.00 | 77 | 1013.9 | |
| 20260903004658 | 27 | 0.0 | 0.0 | 0.00 | 0.00 | 0.00 | 76 | 1013.9 | |
| 20260903004136 | 28 | 0.0 | 0.0 | 0.00 | 0.00 | 0.00 | 75 | 1013.9 | |
| 20260903003635 | 28 | 0.0 | 0.0 | 0.00 | 0.00 | 0.00 | 78 | 1013.7 | |
| 20260903003133 | 28 | 0.0 | 0.0 | 0.00 | 0.00 | 0.00 | 77 | 1013.6 | |
| 20260903002631 | 29 | 0.0 | 0.0 | 0.00 | 0.00 | 0.00 | 71 | 1013.6 | |
| 20260903002029 | 29 | 0.0 | 0.0 | 0.00 | 0.00 | 0.00 | 69 | 1013.7 | |
| 20260903001528 | 30 | 0.0 | 0.0 | 0.00 | 0.00 | 0.00 | 67 | 1013.6 | |
| 20260903001047 | 30 | 0.0 | 0.0 | 0.00 | 0.00 | 0.00 | 65 | 1013.6 | |
| 20260903000625 | 30 | 0.0 | 0.0 | 0.00 | 0.00 | 0.00 | 64 | 1013.6 | |
| 20260903000023 | 30 | 0.0 | 0.0 | 0.00 | 0.00 | 0.00 | 64 | 1013.6 | |
| 20260902235521 | 30 | 0.0 | 0.0 | 0.00 | 0.00 | 0.00 | 64 | 1013.6 | |
| 20260902235019 | 31 | 0.0 | 0.0 | 0.00 | 0.00 | 0.00 | 62 | 1013.7 | |
| 20260902234618 | 31 | 0.0 | 0.0 | 0.00 | 0.00 | 0.00 | 62 | 1013.6 | |
| 20260902234016 | 31 | 0.0 | 0.0 | 0.00 | 0.00 | 0.00 | 61 | 1013.6 | |
| 20260902233515 | 31 | 247 | 6.4 | 8.0 | 0.00 | 0.00 | 0.00 | 61 | 1013.7 |
| 20260902233013 | 31 | 0.0 | 0.0 | 0.00 | 0.00 | 0.00 | 62 | 1013.6 | |
| 20260902232310 | 32 | 0.0 | 0.0 | 0.00 | 0.00 | 0.00 | 59 | 1013.6 | |
| 20260902231829 | 32 | 247 | 8.0 | 11.3 | 0.00 | 0.00 | 0.00 | 58 | 1013.7 |
| 20260902231308 | 32 | 247 | 9.7 | 11.3 | 0.00 | 0.00 | 0.00 | 57 | 1013.7 |
| 20260902230807 | 32 | 231 | 12.9 | 16.1 | 0.00 | 0.00 | 0.00 | 57 | 1013.6 |
| 20260902230324 | 32 | 192 | 8.0 | 9.7 | 0.00 | 0.00 | 0.00 | 57 | 1013.6 |
| 20260902225803 | 32 | 191 | 6.4 | 6.4 | 0.00 | 0.00 | 0.00 | 57 | 1013.6 |
| 20260902225302 | 33 | 201 | 9.7 | 12.9 | 0.00 | 0.00 | 0.00 | 55 | 1013.5 |
| 20260902224658 | 33 | 243 | 6.4 | 8.0 | 0.00 | 0.00 | 0.00 | 56 | 1013.5 |
| 20260902224157 | 33 | 0.0 | 0.0 | 0.00 | 0.00 | 0.00 | 55 | 1013.5 | |
| 20260902223655 | 33 | 0.0 | 0.0 | 0.00 | 0.00 | 0.00 | 55 | 1013.5 | |
| 20260902223254 | 33 | 239 | 6.4 | 6.4 | 0.00 | 0.00 | 0.00 | 53 | 1013.5 |
| 20260902222652 | 33 | 0.0 | 0.0 | 0.00 | 0.00 | 0.00 | 52 | 1013.5 | |
| 20260902222150 | 33 | 239 | 8.0 | 9.7 | 0.00 | 0.00 | 0.00 | 52 | 1013.6 |
| 20260902221649 | 33 | 240 | 6.4 | 9.7 | 0.00 | 0.00 | 0.00 | 53 | 1013.7 |
| 20260902221147 | 33 | 260 | 8.0 | 11.3 | 0.00 | 0.00 | 0.00 | 52 | 1013.7 |
| 20260902220646 | 33 | 265 | 11.3 | 14.5 | 0.00 | 0.00 | 0.00 | 52 | 1013.7 |
| 20260902220144 | 33 | 214 | 6.4 | 9.7 | 0.00 | 0.00 | 0.00 | 55 | 1013.7 |
| 20260902215643 | 33 | 202 | 11.3 | 14.5 | 0.00 | 0.00 | 0.00 | 52 | 1013.6 |
| 20260902215221 | 33 | 169 | 8.0 | 12.9 | 0.00 | 0.00 | 0.00 | 54 | 1013.7 |
| 20260902214639 | 33 | 233 | 11.3 | 14.5 | 0.00 | 0.00 | 0.00 | 56 | 1013.7 |
| 20260902214157 | 33 | 208 | 9.7 | 12.9 | 0.00 | 0.00 | 0.00 | 55 | 1013.6 |
| 20260902213736 | 33 | 214 | 11.3 | 16.1 | 0.00 | 0.00 | 0.00 | 52 | 1013.8 |
| 20260902213134 | 33 | 200 | 11.3 | 17.7 | 0.00 | 0.00 | 0.00 | 51 | 1013.8 |
| 20260902212632 | 33 | 221 | 8.0 | 11.3 | 0.00 | 0.00 | 0.00 | 53 | 1013.9 |
| 20260902212131 | 33 | 236 | 11.3 | 16.1 | 0.00 | 0.00 | 0.00 | 53 | 1013.9 |
| 20260902211630 | 33 | 201 | 4.8 | 4.8 | 0.00 | 0.00 | 0.00 | 54 | 1013.9 |
| 20260902211127 | 33 | 234 | 9.7 | 11.3 | 0.00 | 0.00 | 0.00 | 55 | 1014.0 |
| 20260902210625 | 33 | 233 | 9.7 | 12.9 | 0.00 | 0.00 | 0.00 | 54 | 1014.0 |
| 20260902210144 | 33 | 262 | 9.7 | 9.7 | 0.00 | 0.00 | 0.00 | 55 | 1014.1 |
| 20260902205522 | 33 | 243 | 9.7 | 12.9 | 0.00 | 0.00 | 0.00 | 53 | 1014.2 |
| 20260902205021 | 33 | 244 | 11.3 | 14.5 | 0.00 | 0.00 | 0.00 | 54 | 1014.2 |
| 20260902204539 | 33 | 243 | 8.0 | 9.7 | 0.00 | 0.00 | 0.00 | 54 | 1014.3 |
| 20260902203836 | 33 | 259 | 9.7 | 11.3 | 0.00 | 0.00 | 0.00 | 53 | 1014.3 |
| 20260902203315 | 33 | 0.0 | 0.0 | 0.00 | 0.00 | 0.00 | 54 | 1014.3 | |
| 20260902202813 | 33 | 233 | 12.9 | 16.1 | 0.00 | 0.00 | 0.00 | 54 | 1014.5 |
| 20260902202311 | 33 | 228 | 12.9 | 14.5 | 0.00 | 0.00 | 0.00 | 52 | 1014.6 |
| 20260902201810 | 33 | 232 | 14.5 | 19.3 | 0.00 | 0.00 | 0.00 | 53 | 1014.7 |
| 20260902201307 | 33 | 243 | 14.5 | 16.1 | 0.00 | 0.00 | 0.00 | 53 | 1014.7 |
| 20260902200907 | 33 | 261 | 9.7 | 14.5 | 0.00 | 0.00 | 0.00 | 54 | 1014.7 |
| 20260902200406 | 33 | 180 | 6.4 | 6.4 | 0.00 | 0.00 | 0.00 | 54 | 1014.8 |
| 20260902195703 | 33 | 270 | 9.7 | 14.5 | 0.00 | 0.00 | 0.00 | 54 | 1014.8 |
| 20260902195221 | 33 | 266 | 11.3 | 16.1 | 0.00 | 0.00 | 0.00 | 53 | 1014.8 |
| 20260902194559 | 32 | 224 | 8.0 | 9.7 | 0.00 | 0.00 | 0.00 | 54 | 1014.9 |
| 20260902194059 | 32 | 205 | 11.3 | 12.9 | 0.00 | 0.00 | 0.00 | 54 | 1015.0 |
| 20260902193556 | 32 | 206 | 12.9 | 14.5 | 0.00 | 0.00 | 0.00 | 55 | 1015.1 |
| 20260902193054 | 32 | 213 | 6.4 | 8.0 | 0.00 | 0.00 | 0.00 | 54 | 1015.2 |
| 20260902192714 | 32 | 149 | 16.1 | 19.3 | 0.00 | 0.00 | 0.00 | 55 | 1015.3 |
| 20260902192051 | 32 | 251 | 11.3 | 12.9 | 0.00 | 0.00 | 0.00 | 55 | 1015.3 |
| 20260902191551 | 32 | 183 | 11.3 | 14.5 | 0.00 | 0.00 | 0.00 | 53 | 1015.3 |
| 20260902191048 | 32 | 248 | 6.4 | 8.0 | 0.00 | 0.00 | 0.00 | 54 | 1015.3 |
| 20260902190547 | 32 | 232 | 11.3 | 14.5 | 0.00 | 0.00 | 0.00 | 56 | 1015.3 |
| 20260902190105 | 32 | 197 | 9.7 | 14.5 | 0.00 | 0.00 | 0.00 | 57 | 1015.4 |
| 20260902185543 | 32 | 259 | 14.5 | 16.1 | 0.00 | 0.00 | 0.00 | 56 | 1015.4 |
| 20260902185041 | 32 | 245 | 12.9 | 16.1 | 0.00 | 0.00 | 0.00 | 55 | 1015.4 |
| 20260902184338 | 32 | 224 | 11.3 | 14.5 | 0.00 | 0.00 | 0.00 | 55 | 1015.4 |
| 20260902183837 | 32 | 231 | 6.4 | 6.4 | 0.00 | 0.00 | 0.00 | 57 | 1015.4 |
| 20260902183335 | 32 | 191 | 9.7 | 12.9 | 0.00 | 0.00 | 0.00 | 57 | 1015.3 |
| 20260902182830 | 32 | 223 | 8.0 | 8.0 | 0.00 | 0.00 | 0.00 | 58 | 1015.4 |
| 20260902182307 | 31 | 0.0 | 0.0 | 0.00 | 0.00 | 0.00 | 58 | 1015.4 | |
| 20260902181706 | 31 | 221 | 11.3 | 17.7 | 0.00 | 0.00 | 0.00 | 56 | 1015.5 |
| 20260902181124 | 32 | 253 | 8.0 | 11.3 | 0.00 | 0.00 | 0.00 | 56 | 1015.6 |
| 20260902180601 | 32 | 252 | 12.9 | 14.5 | 0.00 | 0.00 | 0.00 | 56 | 1015.7 |
| 20260902180101 | 31 | 248 | 9.7 | 12.9 | 0.00 | 0.00 | 0.00 | 56 | 1015.7 |
| 20260902175759 | 32 | 201 | 9.7 | 11.3 | 0.00 | 0.00 | 0.00 | 58 | 1015.8 |
| 20260902175057 | 32 | 217 | 12.9 | 14.5 | 0.00 | 0.00 | 0.00 | 57 | 1015.8 |
| 20260902174619 | 32 | 250 | 6.4 | 8.0 | 0.00 | 0.00 | 0.00 | 59 | 1015.9 |
| 20260902174017 | 31 | 252 | 8.0 | 9.7 | 0.00 | 0.00 | 0.00 | 60 | 1015.9 |
| 20260902173716 | 31 | 244 | 8.0 | 8.0 | 0.00 | 0.00 | 0.00 | 60 | 1016.0 |
| 20260902173013 | 31 | 266 | 9.7 | 12.9 | 0.00 | 0.00 | 0.00 | 61 | 1016.1 |
| 20260902172512 | 31 | 233 | 8.0 | 11.3 | 0.00 | 0.00 | 0.00 | 61 | 1016.1 |
| 20260902172010 | 31 | 230 | 8.0 | 11.3 | 0.00 | 0.00 | 0.00 | 59 | 1016.2 |
| 20260902171529 | 31 | 239 | 9.7 | 12.9 | 0.00 | 0.00 | 0.00 | 60 | 1016.1 |
| 20260902170906 | 31 | 250 | 14.5 | 16.1 | 0.00 | 0.00 | 0.00 | 60 | 1016.2 |
| 20260902170325 | 31 | 288 | 14.5 | 17.7 | 0.00 | 0.00 | 0.00 | 62 | 1016.3 |
| 20260902165904 | 31 | 256 | 8.0 | 11.3 | 0.00 | 0.00 | 0.00 | 61 | 1016.3 |
| 20260902165402 | 31 | 256 | 9.7 | 12.9 | 0.00 | 0.00 | 0.00 | 62 | 1016.4 |
| 20260902164900 | 31 | 254 | 12.9 | 14.5 | 0.00 | 0.00 | 0.00 | 62 | 1016.4 |
| 20260902164359 | 31 | 255 | 11.3 | 14.5 | 0.00 | 0.00 | 0.00 | 62 | 1016.5 |
| 20260902163857 | 31 | 250 | 8.0 | 9.7 | 0.00 | 0.00 | 0.00 | 61 | 1016.5 |
| 20260902163254 | 31 | 271 | 12.9 | 17.7 | 0.00 | 0.00 | 0.00 | 60 | 1016.6 |
| 20260902162753 | 31 | 208 | 9.7 | 14.5 | 0.00 | 0.00 | 0.00 | 62 | 1016.3 |
| 20260902162251 | 31 | 258 | 9.7 | 14.5 | 0.00 | 0.00 | 0.00 | 62 | 1016.3 |
| 20260902161850 | 31 | 202 | 12.9 | 16.1 | 0.00 | 0.00 | 0.00 | 63 | 1016.3 |
| 20260902161248 | 31 | 306 | 9.7 | 11.3 | 0.00 | 0.00 | 0.00 | 62 | 1016.3 |
| 20260902160746 | 30 | 265 | 11.3 | 16.1 | 0.00 | 0.00 | 0.00 | 63 | 1016.3 |
| 20260902160245 | 30 | 260 | 9.7 | 14.5 | 0.00 | 0.00 | 0.00 | 62 | 1016.3 |
| 20260902155742 | 30 | 231 | 9.7 | 12.9 | 0.00 | 0.00 | 0.00 | 63 | 1016.4 |
| 20260902155241 | 30 | 0.0 | 0.0 | 0.00 | 0.00 | 0.00 | 63 | 1016.4 | |
| 20260902154745 | 30 | 0.0 | 0.0 | 0.00 | 0.00 | 0.00 | 65 | 1016.3 | |
| 20260902154258 | 30 | 277 | 9.7 | 12.9 | 0.00 | 0.00 | 0.00 | 64 | 1016.4 |
| 20260902153636 | 30 | 267 | 11.3 | 12.9 | 0.00 | 0.00 | 0.00 | 65 | 1016.5 |
| 20260902153155 | 30 | 268 | 4.8 | 6.4 | 0.00 | 0.00 | 0.00 | 64 | 1016.6 |
| 20260902152633 | 30 | 309 | 9.7 | 11.3 | 0.00 | 0.00 | 0.00 | 66 | 1016.5 |
| 20260902152332 | 30 | 251 | 4.8 | 8.0 | 0.00 | 0.00 | 0.00 | 65 | 1016.5 |
| 20260902151711 | 29 | 287 | 9.7 | 12.9 | 0.00 | 0.00 | 0.00 | 66 | 1016.5 |
| 20260902151128 | 29 | 236 | 16.1 | 17.7 | 0.00 | 0.00 | 0.00 | 67 | 1016.5 |
| 20260902150627 | 29 | 223 | 8.0 | 9.7 | 0.00 | 0.00 | 0.00 | 67 | 1016.5 |
| 20260902150125 | 29 | 272 | 11.3 | 14.5 | 0.00 | 0.00 | 0.00 | 69 | 1016.5 |
| 20260902145623 | 29 | 272 | 6.4 | 6.4 | 0.00 | 0.00 | 0.00 | 68 | 1016.5 |
| 20260902145121 | 28 | 272 | 8.0 | 11.3 | 0.00 | 0.00 | 0.00 | 69 | 1016.5 |
| 20260902144619 | 28 | 273 | 8.0 | 11.3 | 0.00 | 0.00 | 0.00 | 69 | 1016.6 |
| 20260902144018 | 28 | 273 | 8.0 | 8.0 | 0.00 | 0.00 | 0.00 | 68 | 1016.5 |
| 20260902143515 | 28 | 0.0 | 0.0 | 0.00 | 0.00 | 0.00 | 69 | 1016.4 | |
| 20260902143014 | 28 | 281 | 9.7 | 12.9 | 0.00 | 0.00 | 0.00 | 70 | 1016.4 |
| 20260902142512 | 28 | 0.0 | 0.0 | 0.00 | 0.00 | 0.00 | 72 | 1016.4 | |
| 20260902142012 | 28 | 281 | 9.7 | 12.9 | 0.00 | 0.00 | 0.00 | 72 | 1016.4 |
| 20260902141510 | 28 | 0.0 | 0.0 | 0.00 | 0.00 | 0.00 | 74 | 1016.4 | |
| 20260902141008 | 27 | 282 | 9.7 | 11.3 | 0.00 | 0.00 | 0.00 | 75 | 1016.4 |
| 20260902140407 | 27 | 285 | 9.7 | 12.9 | 0.00 | 0.00 | 0.00 | 75 | 1016.3 |
| 20260902135905 | 27 | 285 | 6.4 | 8.0 | 0.00 | 0.00 | 0.00 | 78 | 1016.3 |
| 20260902135306 | 26 | 285 | 6.4 | 8.0 | 0.00 | 0.00 | 0.00 | 81 | 1016.2 |
| 20260902135001 | 26 | 0.0 | 0.0 | 0.00 | 0.00 | 0.00 | 81 | 1016.2 | |
| 20260902134259 | 26 | 285 | 4.8 | 4.8 | 0.00 | 0.00 | 0.00 | 82 | 1016.3 |
| 20260902133757 | 26 | 285 | 9.7 | 12.9 | 0.00 | 0.00 | 0.00 | 81 | 1016.3 |
| 20260902133255 | 26 | 0.0 | 0.0 | 0.00 | 0.00 | 0.00 | 84 | 1016.3 | |
| 20260902132753 | 26 | 285 | 8.0 | 11.3 | 0.00 | 0.00 | 0.00 | 85 | 1016.3 |
| 20260902132252 | 25 | 0.0 | 0.0 | 0.00 | 0.00 | 0.00 | 85 | 1016.4 | |
| 20260902131751 | 25 | 0.0 | 0.0 | 0.00 | 0.00 | 0.00 | 86 | 1016.5 | |
| 20260902131310 | 25 | 0.0 | 0.0 | 0.00 | 0.00 | 0.00 | 86 | 1016.6 | |
| 20260902130748 | 25 | 0.0 | 0.0 | 0.00 | 0.00 | 0.00 | 87 | 1016.5 | |
| 20260902130246 | 25 | 285 | 1.6 | 1.6 | 0.00 | 0.00 | 0.00 | 88 | 1016.6 |
| 20260902125704 | 25 | 0.0 | 0.0 | 0.00 | 0.00 | 0.00 | 89 | 1016.5 | |
| 20260902125042 | 25 | 0.0 | 0.0 | 0.00 | 0.00 | 0.00 | 89 | 1016.4 | |
| 20260902124540 | 25 | 0.0 | 0.0 | 0.00 | 0.00 | 0.00 | 89 | 1016.4 | |
| 20260902124039 | 24 | 0.0 | 0.0 | 0.00 | 0.00 | 0.00 | 90 | 1016.3 | |
| 20260902123557 | 24 | 0.0 | 0.0 | 0.00 | 0.00 | 0.00 | 91 | 1016.3 | |
| 20260902123035 | 24 | 0.0 | 0.0 | 0.00 | 0.00 | 0.00 | 92 | 1016.4 | |
| 20260902122534 | 24 | 0.0 | 0.0 | 0.00 | 0.00 | 0.00 | 93 | 1016.3 | |
| 20260902122032 | 23 | 0.0 | 0.0 | 0.00 | 0.00 | 0.00 | 94 | 1016.4 | |
| 20260902121731 | 23 | 0.0 | 0.0 | 0.00 | 0.00 | 0.00 | 95 | 1016.4 | |
| 20260902121028 | 23 | 0.0 | 0.0 | 0.00 | 0.00 | 0.00 | 96 | 1016.3 | |
| 20260902120548 | 23 | 0.0 | 0.0 | 0.00 | 0.00 | 0.00 | 96 | 1016.3 | |
| 20260902120025 | 23 | 0.0 | 0.0 | 0.00 | 0.00 | 0.00 | 96 | 1016.3 | |
| 20260902115523 | 23 | 0.0 | 0.0 | 0.00 | 0.00 | 0.00 | 96 | 1016.3 | |
| 20260902115042 | 23 | 0.0 | 0.0 | 0.00 | 0.00 | 0.00 | 96 | 1016.2 | |
| 20260902114520 | 23 | 0.0 | 0.0 | 0.00 | 0.00 | 0.00 | 96 | 1016.1 | |
| 20260902114018 | 23 | 0.0 | 0.0 | 0.00 | 0.00 | 0.00 | 96 | 1016.1 | |
| 20260902113417 | 23 | 0.0 | 0.0 | 0.00 | 0.00 | 0.00 | 95 | 1016.1 | |
| 20260902113016 | 23 | 0.0 | 0.0 | 0.00 | 0.00 | 0.00 | 95 | 1016.1 | |
| 20260902112414 | 23 | 0.0 | 0.0 | 0.00 | 0.00 | 0.00 | 95 | 1016.2 | |
| 20260902112033 | 23 | 0.0 | 0.0 | 0.00 | 0.00 | 0.00 | 95 | 1016.2 | |
| 20260902111431 | 23 | 0.0 | 0.0 | 0.00 | 0.00 | 0.00 | 94 | 1016.2 | |
| 20260902111008 | 23 | 0.0 | 0.0 | 0.00 | 0.00 | 0.00 | 94 | 1016.2 | |
| 20260902110507 | 23 | 0.0 | 0.0 | 0.00 | 0.00 | 0.00 | 95 | 1016.4 | |
| 20260902105705 | 23 | 0.0 | 0.0 | 0.00 | 0.00 | 0.00 | 94 | 1016.4 | |
| 20260902105103 | 23 | 0.0 | 0.0 | 0.00 | 0.00 | 0.00 | 94 | 1016.5 | |
| 20260902104602 | 23 | 0.0 | 0.0 | 0.00 | 0.00 | 0.00 | 93 | 1016.6 | |
| 20260902104059 | 23 | 0.0 | 0.0 | 0.00 | 0.00 | 0.00 | 93 | 1016.5 | |
| 20260902103558 | 23 | 0.0 | 0.0 | 0.00 | 0.00 | 0.00 | 92 | 1016.4 | |
| 20260902103102 | 23 | 0.0 | 0.0 | 0.00 | 0.00 | 0.00 | 92 | 1016.4 | |
| 20260902102555 | 23 | 0.0 | 0.0 | 0.00 | 0.00 | 0.00 | 93 | 1016.4 | |
| 20260902102052 | 23 | 0.0 | 0.0 | 0.00 | 0.00 | 0.00 | 94 | 1016.3 | |
| 20260902101551 | 23 | 0.0 | 0.0 | 0.00 | 0.00 | 0.00 | 95 | 1016.2 | |
| 20260902100949 | 23 | 0.0 | 0.0 | 0.00 | 0.00 | 0.00 | 96 | 1016.2 | |
| 20260902100548 | 23 | 0.0 | 0.0 | 0.00 | 0.00 | 0.00 | 96 | 1016.2 | |
| 20260902100046 | 23 | 0.0 | 0.0 | 0.00 | 0.00 | 0.00 | 96 | 1016.1 | |
| 20260902095445 | 23 | 0.0 | 0.0 | 0.00 | 0.00 | 0.00 | 95 | 1016.1 | |
| 20260902094943 | 23 | 0.0 | 0.0 | 0.00 | 0.00 | 0.00 | 95 | 1016.0 | |
| 20260902094441 | 23 | 0.0 | 0.0 | 0.00 | 0.00 | 0.00 | 95 | 1016.1 | |
| 20260902093939 | 23 | 0.0 | 0.0 | 0.00 | 0.00 | 0.00 | 95 | 1016.1 | |
| 20260902093458 | 23 | 0.0 | 0.0 | 0.00 | 0.00 | 0.00 | 94 | 1016.1 | |
| 20260902092936 | 23 | 0.0 | 0.0 | 0.00 | 0.00 | 0.00 | 93 | 1016.0 | |
| 20260902092334 | 24 | 0.0 | 0.0 | 0.00 | 0.00 | 0.00 | 93 | 1016.0 | |
| 20260902091853 | 24 | 0.0 | 0.0 | 0.00 | 0.00 | 0.00 | 92 | 1016.0 | |
| 20260902091331 | 24 | 0.0 | 0.0 | 0.00 | 0.00 | 0.00 | 92 | 1015.9 | |
| 20260902090930 | 25 | 0.0 | 0.0 | 0.00 | 0.00 | 0.00 | 92 | 1015.8 | |
| 20260902090328 | 25 | 0.0 | 0.0 | 0.00 | 0.00 | 0.00 | 91 | 1015.8 | |
| 20260902085826 | 25 | 0.0 | 0.0 | 0.00 | 0.00 | 0.00 | 91 | 1015.7 | |
| 20260902085345 | 25 | 0.0 | 0.0 | 0.00 | 0.00 | 0.00 | 90 | 1015.7 | |
| 20260902084823 | 25 | 0.0 | 0.0 | 0.00 | 0.00 | 0.00 | 90 | 1015.7 | |
| 20260902084321 | 25 | 0.0 | 0.0 | 0.00 | 0.00 | 0.00 | 90 | 1015.7 | |
| 20260902083839 | 25 | 0.0 | 0.0 | 0.00 | 0.00 | 0.00 | 91 | 1015.6 | |
| 20260902083339 | 25 | 0.0 | 0.0 | 0.00 | 0.00 | 0.00 | 91 | 1015.6 | |
| 20260902082916 | 25 | 0.0 | 0.0 | 0.00 | 0.00 | 0.00 | 92 | 1015.7 | |
| 20260902082214 | 25 | 0.0 | 0.0 | 0.00 | 0.00 | 0.00 | 92 | 1015.7 | |
| 20260902081712 | 25 | 0.0 | 0.0 | 0.00 | 0.00 | 0.00 | 92 | 1015.7 | |
| 20260902081432 | 25 | 0.0 | 0.0 | 0.00 | 0.00 | 0.00 | 92 | 1015.7 | |
| 20260902080709 | 25 | 0.0 | 0.0 | 0.00 | 0.00 | 0.00 | 92 | 1015.7 | |
| 20260902080208 | 24 | 0.0 | 0.0 | 0.00 | 0.00 | 0.00 | 93 | 1015.6 | |
| 20260902075706 | 24 | 0.0 | 0.0 | 0.00 | 0.00 | 0.00 | 93 | 1015.7 | |
| 20260902075124 | 24 | 0.0 | 0.0 | 0.00 | 0.00 | 0.00 | 94 | 1015.7 | |
| 20260902074522 | 24 | 0.0 | 0.0 | 0.00 | 0.00 | 0.00 | 94 | 1015.7 | |
| 20260902074001 | 24 | 0.0 | 0.0 | 0.00 | 0.00 | 0.00 | 95 | 1015.7 | |
| 20260902073559 | 24 | 0.0 | 0.0 | 0.00 | 0.00 | 0.00 | 96 | 1015.7 | |
| 20260902072957 | 24 | 0.0 | 0.0 | 0.00 | 0.00 | 0.00 | 96 | 1015.7 | |
| 20260902072515 | 24 | 0.0 | 0.0 | 0.00 | 0.00 | 0.00 | 97 | 1015.6 | |
| 20260902071954 | 23 | 0.0 | 0.0 | 0.00 | 0.00 | 0.00 | 97 | 1015.6 | |
| 20260902071453 | 23 | 0.0 | 0.0 | 0.00 | 0.00 | 0.00 | 98 | 1015.5 | |
| 20260902070950 | 23 | 0.0 | 0.0 | 0.00 | 0.00 | 0.00 | 98 | 1015.4 | |
| 20260902070449 | 23 | 0.0 | 0.0 | 0.00 | 0.00 | 0.00 | 98 | 1015.5 | |
| 20260902065947 | 23 | 0.0 | 0.0 | 0.00 | 0.00 | 0.00 | 98 | 1015.5 | |
| 20260902065406 | 22 | 0.0 | 0.0 | 0.00 | 0.00 | 0.00 | 97 | 1015.6 | |
| 20260902064844 | 22 | 0.0 | 0.0 | 0.00 | 0.00 | 0.00 | 98 | 1015.5 | |
| 20260902064343 | 22 | 0.0 | 0.0 | 0.00 | 0.00 | 0.00 | 98 | 1015.4 | |
| 20260902063840 | 22 | 0.0 | 0.0 | 0.00 | 0.00 | 0.00 | 98 | 1015.3 | |
| 20260902063339 | 22 | 0.0 | 0.0 | 0.00 | 0.00 | 0.00 | 97 | 1015.4 | |
| 20260902062938 | 22 | 0.0 | 0.0 | 0.00 | 0.00 | 0.00 | 97 | 1015.5 | |
| 20260902062336 | 22 | 0.0 | 0.0 | 0.00 | 0.00 | 0.00 | 97 | 1015.5 | |
| 20260902061734 | 22 | 0.0 | 0.0 | 0.00 | 0.00 | 0.00 | 97 | 1015.5 | |
| 20260902061212 | 22 | 0.0 | 0.0 | 0.00 | 0.00 | 0.00 | 97 | 1015.6 | |
| 20260902060530 | 22 | 0.0 | 0.0 | 0.00 | 0.00 | 0.00 | 97 | 1015.6 | |
| 20260902060027 | 22 | 0.0 | 0.0 | 0.00 | 0.00 | 0.00 | 97 | 1015.7 | |
| 20260902055526 | 22 | 0.0 | 0.0 | 0.00 | 0.00 | 0.00 | 97 | 1015.7 | |
| 20260902055025 | 22 | 0.0 | 0.0 | 0.00 | 0.00 | 0.00 | 97 | 1015.7 | |
| 20260902054524 | 22 | 0.0 | 0.0 | 0.00 | 0.00 | 0.00 | 97 | 1015.8 | |
| 20260902054001 | 22 | 0.0 | 0.0 | 0.00 | 0.00 | 0.00 | 97 | 1015.9 | |
| 20260902053439 | 22 | 0.0 | 0.0 | 0.00 | 0.00 | 0.00 | 97 | 1015.9 | |
| 20260902052818 | 22 | 0.0 | 0.0 | 0.00 | 0.00 | 0.00 | 96 | 1016.0 | |
| 20260902052115 | 22 | 0.0 | 0.0 | 0.00 | 0.00 | 0.00 | 96 | 1016.0 | |
| 20260902051613 | 22 | 0.0 | 0.0 | 0.00 | 0.00 | 0.00 | 96 | 1016.1 | |
| 20260902051112 | 22 | 0.0 | 0.0 | 0.00 | 0.00 | 0.00 | 96 | 1016.0 | |
| 20260902050711 | 22 | 0.0 | 0.0 | 0.00 | 0.00 | 0.00 | 95 | 1016.0 | |
| 20260902050128 | 22 | 0.0 | 0.0 | 0.00 | 0.00 | 0.00 | 95 | 1016.1 | |
| 20260902045607 | 22 | 0.0 | 0.0 | 0.00 | 0.00 | 0.00 | 95 | 1016.0 | |
| 20260902045045 | 22 | 0.0 | 0.0 | 0.00 | 0.00 | 0.00 | 95 | 1015.9 | |
| 20260902044644 | 22 | 0.0 | 0.0 | 0.00 | 0.00 | 0.00 | 95 | 1015.9 | |
| 20260902044102 | 22 | 0.0 | 0.0 | 0.00 | 0.00 | 0.00 | 95 | 1015.9 | |
| 20260902043601 | 22 | 0.0 | 0.0 | 0.00 | 0.00 | 0.00 | 94 | 1015.9 |